CAPE
0 0 0 0 3 22 0 0 31 41 103 85 39 60 113 55 32 29 118 162 78 81 230 95 131 276 301 284 290 490 775 743
0 0 0 0 0 0 0 0 0 39 87 75 103 67 127 117 93 99 121 227 219 165 327 160 123 157 401 322 276 298 560 643
0 0 0 0 0 0 2 0 0 0 6 85 102 211 249 194 140 134 153 206 134 170 233 159 164 259 621 493 356 390 646 678
0 0 0 15 0 0 0 0 0 0 0 73 104 259 99 59 66 116 86 103 196 169 233 121 116 261 525 378 336 337 545 899
0 3 6 32 38 20 6 0 39 0 0 115 172 110 80 93 58 42 22 42 86 129 93 82 64 132 231 169 168 175 295 462
0 5 24 6 24 37 26 14 4 0 24 112 224 185 122 97 179 133 168 71 16 51 61 108 98 113 110 102 143 74 140 280
5 24 46 66 5 8 3 17 24 17 34 135 237 246 230 193 237 102 126 107 94 71 61 84 33 119 86 167 145 143 65 63
22 26 36 54 34 21 148 114 125 52 88 171 340 293 212 140 141 132 164 196 89 106 153 60 88 86 64 132 39 0 64 20
5 26 28 66 51 33 44 218 255 155 110 252 263 217 169 173 122 90 113 147 273 119 141 181 155 133 127 80 106 11 15 28
0 11 25 4 7 133 287 285 256 186 152 286 314 210 122 151 320 176 185 177 215 196 175 224 250 206 223 189 145 108 138 126
1 10 0 0 0 0 3 46 278 209 209 215 230 158 177 214 199 165 170 145 201 218 349 261 282 258 193 197 201 200 200 164
0 0 1 0 0 0 0 13 321 313 340 301 258 231 283 321 227 121 47 56 77 110 130 130 193 185 154 162 151 238 268 224
0 0 0 0 0 0 2 0 444 393 315 275 266 206 110 83 28 24 16 78 31 60 263 197 162 182 252 232 179 170 155 189
0 0 0 0 0 0 0 144 471 447 382 355 275 179 119 67 8 0 12 29 26 41 48 63 53 64 79 61 66 50 107 72
0 0 0 11 115 214 207 168 509 572 400 378 300 124 121 107 29 0 0 0 0 0 0 0 0 0 1 0 0 0 0 0
12 18 25 21 168 157 334 409 185 589 427 249 220 137 73 94 50 41 27 8 0 0 0 0 0 0 0 0 0 0 0 0
20 35 34 15 55 108 269 464 587 459 343 204 123 18 48 11 40 29 31 32 9 5 0 0 0 0 0 0 0 0 0 0
1 33 16 1 11 26 58 197 298 350 245 204 116 24 20 1 0 1 20 33 36 31 2 0 0 0 0 0 0 0 0 0
0 4 21 0 0 0 4 54 85 131 83 104 107 73 87 55 67 80 85 71 95 29 6 0 0 0 0 0 0 0 0 0
CIN
0 0 0 0 -20 -33 0 0 -64 -81 -118 -146 -180 -154 -99 -111 -133 -106 -88 -39 -80 -71 -103 -87 -61 -133 -110 -83 -85 -64 -30 -20
0 0 0 0 0 0 0 0 0 -93 -113 -159 -170 -153 -102 -78 -98 -85 -75 -31 -58 -90 -63 -117 -87 -99 -88 -78 -53 -50 -33 -24
0 0 0 0 0 0 -4 0 0 0 -32 -223 -207 -103 -77 -48 -70 -66 -87 -133 -93 -91 -76 -113 -171 -178 -78 -55 -58 -96 -48 -28
0 0 0 -15 0 0 0 0 0 0 0 -222 -186 -74 -124 -101 -105 -53 -27 -22 -50 -60 -36 -89 -117 -92 -33 -73 -51 -36 -37 -9
-1 -10 -13 -9 -9 -10 -9 0 -69 0 0 -220 -160 -85 -52 -93 -88 -62 -132 -127 -120 -26 -10 -48 -71 -76 -37 -72 -60 -51 -24 -10
0 -4 -7 -7 -7 -7 -10 -7 -2 0 -232 -267 -174 -161 -127 -114 -75 -74 -35 -72 -107 -73 -22 0 0 -2 -16 -44 -25 -38 -36 -12
-34 -3 -2 -3 -4 -43 -11 -11 -7 -67 -285 -389 -267 -198 -136 -115 -81 -63 -38 -24 -44 -58 -35 -16 -1 -15 -3 0 -21 -23 -8 -40
-17 -14 -3 -6 -8 -8 -229 -294 -278 -341 -269 -380 -177 -155 -177 -99 -161 -116 -50 -14 -33 -20 -9 -27 -2 0 -36 -1 -3 0 -12 -63
-12 -3 -10 -5 -8 -25 -89 -171 -196 -200 -231 -250 -183 -102 -207 -188 -180 -174 -98 -43 0 -20 -14 -17 -7 0 0 -4 -22 -132 -172 -143
-8 -7 -13 -18 -20 -148 -87 -133 -164 -190 -270 -207 -182 -132 -182 -137 -49 -80 -40 -37 -37 -10 0 -2 -4 -1 -1 0 -15 -23 -4 -3
-2 -6 -4 0 0 0 -41 -55 -103 -168 -210 -171 -137 -119 -101 -98 -66 -55 -42 -36 -25 -19 0 0 0 0 -2 -5 -7 0 0 0
0 0 0 0 0 0 0 -44 -117 -105 -105 -115 -117 -107 -129 -82 -66 -66 -90 -94 -59 -43 -27 -21 -10 -13 -3 -1 -9 -3 0 -1
0 0 0 0 0 0 -3 0 -102 -73 -69 -68 -89 -68 -71 -55 -93 -91 -105 -56 -87 -55 -3 -1 -5 -12 0 0 -3 -2 -9 -3
0 0 0 0 0 0 0 -132 -141 -101 -62 -68 -53 -42 -47 -29 -47 0 -78 -49 -50 -31 -35 -40 -61 -49 -39 -42 -57 -35 -13 -20
0 0 0 -92 -92 -82 -101 -121 -131 -81 -89 -68 -76 -51 -43 -29 -36 -29 0 0 0 0 0 0 0 0 -7 0 0 0 0 0
-43 -77 -72 -121 -106 -100 -84 -57 -92 -68 -56 -66 -60 -31 -39 -18 -12 -3 -3 -9 0 0 0 0 0 0 0 0 0 0 0 0
-37 -48 -49 -100 -104 -96 -85 -73 -70 -67 -54 -61 -38 -15 -3 -1 0 0 -5 -10 -20 -12 0 0 0 0 0 0 0 0 0 0
-22 -22 -17 -17 -83 -76 -80 -86 -67 -63 -71 -48 -42 -30 -42 -58 0 -20 -17 -16 -6 0 0 0 0 0 0 0 0 0 0 0
0 -10 -22 -7 0 -1 -34 -44 -52 -49 -59 -52 -50 -15 -20 -11 -14 -12 -7 -5 0 -1 -19 0 0 0 0 0 0 0 0 0
Wind_Speed
nan nan nan nan nan nan nan nan nan nan 29 nan nan nan 21 nan nan nan 14 20 nan nan 28 nan 23 21 22 21 20 16 15 16
nan nan nan nan nan nan nan nan nan nan nan nan 20 nan 20 20 nan nan 8 20 24 26 30 33 28 26 24 22 18 20 20 19
nan nan nan nan nan nan nan nan nan nan nan nan 21 20 21 20 17 12 12 17 21 26 29 33 35 30 27 26 22 23 23 22
nan nan nan nan nan nan nan nan nan nan nan nan 25 26 nan nan nan 18 nan 12 24 20 32 36 38 33 35 33 35 34 31 31
nan nan nan nan nan nan nan nan nan nan nan 33 32 30 nan nan nan nan nan nan nan 22 nan nan nan 41 35 35 39 35 36 38
nan nan nan nan nan nan nan nan nan nan nan 26 25 25 22 nan 22 21 20 nan nan nan nan 31 nan 46 32 35 40 nan 40 44
nan nan nan nan nan nan nan nan nan nan nan 20 28 35 32 26 26 26 25 30 nan nan nan nan nan 42 nan 40 43 43 nan nan
nan nan nan nan nan nan 43 41 44 nan nan 41 44 38 33 31 30 32 33 32 nan 29 29 nan nan nan nan 36 nan nan nan nan
nan nan nan nan nan nan nan 36 36 33 30 37 44 46 45 37 28 nan 32 31 33 31 27 26 30 24 30 nan 48 nan nan nan
nan nan nan nan nan 52 47 42 41 33 37 41 43 45 47 40 40 36 31 31 33 34 35 39 34 26 27 29 31 31 20 15
nan nan nan nan nan nan nan nan 36 44 41 40 41 42 39 36 36 36 38 32 31 37 37 36 33 33 34 29 27 27 24 16
nan nan nan nan nan nan nan nan 36 38 45 44 40 35 32 37 36 33 nan nan nan 39 36 36 31 33 34 30 27 25 21 24
nan nan nan nan nan nan nan nan 34 33 38 42 37 39 43 nan nan nan nan nan nan nan 37 35 33 35 34 31 29 25 25 25
nan nan nan nan nan nan nan 29 37 41 39 39 42 37 40 nan nan nan nan nan nan nan nan nan nan nan nan nan nan nan 33 nan
nan nan nan nan 23 22 21 27 39 44 43 38 32 31 31 35 nan nan nan nan nan nan nan nan nan nan nan nan nan nan nan nan
nan nan nan nan 17 27 27 20 30 36 43 39 40 35 nan nan nan nan nan nan nan nan nan nan nan nan nan nan nan nan nan nan
nan nan nan nan nan 19 25 28 32 31 33 34 34 nan nan nan nan nan nan nan nan nan nan nan nan nan nan nan nan nan nan nan
nan nan nan nan nan nan nan 23 27 34 36 34 30 nan nan nan nan nan nan nan nan nan nan nan nan nan nan nan nan nan nan nan
nan nan nan nan nan nan nan nan nan 26 nan 35 36 nan nan nan nan nan nan nan nan nan nan nan nan nan nan nan nan nan nan nan
Wind_Direction
nan nan nan nan nan nan nan nan nan nan 238 nan nan nan 257 nan nan nan 278 215 nan nan 202 nan 209 201 197 191 192 199 209 207
nan nan nan nan nan nan nan nan nan nan nan nan 268 nan 245 261 nan nan 275 214 206 200 204 206 208 208 215 212 194 206 211 210
nan nan nan nan nan nan nan nan nan nan nan nan 256 258 250 256 258 272 313 281 223 211 219 218 208 216 220 226 218 213 215 214
nan nan nan nan nan nan nan nan nan nan nan nan 248 252 nan nan nan 246 nan 266 279 299 235 240 223 225 216 220 220 215 217 217
nan nan nan nan nan nan nan nan nan nan nan 235 249 254 nan nan nan nan nan nan nan 288 nan nan nan 226 218 226 233 225 224 223
nan nan nan nan nan nan nan nan nan nan nan 237 251 246 246 nan 280 285 277 nan nan nan nan 265 nan 240 219 218 227 nan 223 227
nan nan nan nan nan nan nan nan nan nan nan 261 261 265 264 259 265 278 289 298 nan nan nan nan nan 228 nan 222 221 217 nan nan
nan nan nan nan nan nan 233 238 238 nan nan 247 246 250 262 262 265 273 283 284 nan 273 266 nan nan nan nan 223 nan nan nan nan
nan nan nan nan nan nan nan 237 247 250 245 263 250 252 258 262 268 nan 277 273 272 265 268 255 253 238 226 nan 226 nan nan nan
nan nan nan nan nan 240 237 233 230 237 260 258 256 244 252 266 271 266 269 270 268 265 271 270 257 255 257 256 245 233 213 197
nan nan nan nan nan nan nan nan 234 246 255 261 252 257 242 262 261 256 257 257 261 256 256 262 261 249 248 253 252 255 243 241
nan nan nan nan nan nan nan nan 250 257 263 264 265 251 252 264 263 255 nan nan nan 248 242 242 241 244 243 243 254 257 245 235
nan nan nan nan nan nan nan nan 241 257 269 252 257 249 254 nan nan nan nan nan nan nan 235 235 238 240 233 235 239 244 251 250
nan nan nan nan nan nan nan 233 230 238 235 244 243 252 260 nan nan nan nan nan nan nan nan nan nan nan nan nan nan nan 256 nan
nan nan nan nan 228 227 234 227 223 235 230 227 244 240 242 238 nan nan nan nan nan nan nan nan nan nan nan nan nan nan nan nan
nan nan nan nan 217 222 226 230 240 237 241 242 243 247 nan nan nan nan nan nan nan nan nan nan nan nan nan nan nan nan nan nan
nan nan nan nan nan 220 232 237 240 242 251 253 258 nan nan nan nan nan nan nan nan nan nan nan nan nan nan nan nan nan nan nan
nan nan nan nan nan nan nan 235 240 244 244 255 257 nan nan nan nan nan nan nan nan nan nan nan nan nan nan nan nan nan nan nan
nan nan nan nan nan nan nan nan nan 245 nan 259 251 nan nan nan nan nan nan nan nan nan nan nan nan nan nan nan nan nan nan nan